Regional Weather Roundup
Issued by NWS

Home | Current Version | Previous Version | Graphics & Text | Print | Product List | Glossary On
Versions: 1 2 3 4 5 6 7 8 9 10 11 12 13 14 15 16 17 18 19 20 21 22 23 24 25 26 27 28 29 30 31 32 33 34 35 36 37 38 39 40 41 42 43 44 45 46 47 48 49 50
670
ASUS43 KLMK 240502
RWRKY
KENTUCKY REGIONAL WEATHER ROUNDUP
NATIONAL WEATHER SERVICE LOUISVILLE KY
100 AM EDT SUN SEP 24 2017

NOTE "FAIR" INDICATES FEW OR NO CLOUDS BELOW 12,000 FEET
WITH NO SIGNIFICANT WEATHER AND/OR OBSTRUCTIONS TO VISIBILITY.

KYZ001>023-026-027-061>063-070>075-240600-
WESTERN AND SOUTH CENTRAL KENTUCKY

CITY           SKY/WX    TMP DP  RH WIND       PRES   REMARKS
PADUCAH        CLEAR     72  67  84 CALM      30.00S
HENDERSON      CLEAR     65  64  97 CALM      30.03S
OWENSBORO      CLEAR     72  67  84 CALM      30.04S
HOPKINSVILLE   NOT AVBL
BOWLING GREEN  CLEAR     68  66  93 CALM      30.03F
GLASGOW        NOT AVBL
$$

KYZ024-025-028>034-038-045-046-053-240600-
NORTH CENTRAL KENTUCKY

CITY           SKY/WX    TMP DP  RH WIND       PRES   REMARKS
LOUISVILLE/SDF CLEAR     76  65  68 CALM      30.05S
LOUISVILLE/LOU CLEAR     68  68 100 CALM      30.05F
FORT KNOX      NOT AVBL
$$

KYZ035>037-039>044-047>052-055>060-089>105-240600-
NORTHEAST KENTUCKY

CITY           SKY/WX    TMP DP  RH WIND       PRES   REMARKS
LEXINGTON      CLEAR     74  63  68 E8        30.08S
COVINGTON      CLEAR     74  64  71 CALM      30.08S
FRANKFORT      CLEAR     67  63  87 CALM      30.06S
$$

KYZ054-064>069-076>088-106>120-240600-
SOUTHEAST KENTUCKY

CITY           SKY/WX    TMP DP  RH WIND       PRES   REMARKS
JACKSON        CLEAR     71  62  73 CALM      30.09S
LONDON         CLEAR     66  63  90 CALM      30.07S
SOMERSET       NOT AVBL
MIDDLESBORO    PTCLDY    65  65  99 CALM      30.09S
MONTICELLO     CLEAR     64  62  93 W7        30.08S
$$





USA.gov is the U.S. government's official web portal to all federal, state and local government web resources and services.